STARLINK-32153, 60330

Orbit data source: Space-Track

STARLINK-32153, 60330 is a payload satellite owned by SpaceX/Seattle (US) in LEO that was launched on Fri, 02 Aug 2024 UTC via an FALCON 9 launch vehicle from the Air Force Eastern Test Range (AFETR). Payload-class satellites include a variety of spacecraft equipped with specific instruments for various scientific and technological missions. These include communications satellites like Starlink; space stations such as the ISS; scientific satellites like the Hubble; Earth observation satellites from companies like Planet Labs, Umbra, and HawkEye 360; GPS; miniature CubeSats for education and research; and military/defense satellites.

Loading next visibility...
Identifier
60330, 2024-136B
Orbit
LEO
Country
Flag of USUS
Related business
Manufacturer
SpaceX/Seattle
Mission
Operational Commercial Communications
Bus & Motor
STARLINK V2M, Unknown motor
Mass
730 kg wet, ~700 kg dry
Launch date (UTC)
2024-08-02 (2 years ago)
Launch vehicle
FALCON 9
Launch site
Air Force Eastern Test Range (AFETR)
Object type
Payload
Rocket body
Debris
Shape & HBR
Box + 2 Pan, 17.7 m
Radar Cross Section
33.884 m², Large (>1 m²)

Expand to show TLE details & history
Last TLE update: 15 hours ago

TLE from 15 hours ago
0 STARLINK-32153
1 60330U 24136B   26071.38974375  .00000854  00000-0  40959-4 0  9998
2 60330  53.1611  63.4317 0001237  78.6041 281.5098 15.30197977 90072
Epoch: 2026-03-12T09:21Z
TLE epoch observation values (Epoch: 2026-03-12T09:21:13.859Z)
Latitude
-0.0001°
Longitude
113.08355°
Altitude
475.952 km
Speed
7.629 km/s
True Right ascension
04h 13m 43s
True Declination
0° 00' 00"
Sunlit
Object was in daylight at epoch
Visualization orbit readout
Latitude
Unknown
Longitude
Unknown
Altitude
Unknown
Speed
Unknown
Apparent Right ascension
Unknown
Apparent Declination
Unknown
Sunlit
N/A
Visualization observer readout
Local Sidereal Time
05:10:57
Azimuth
Unknown
Elevation
Unknown
Doppler factor
Unknown
Orbital elements
Apogee altitude
476.325 km
Perigee altitude
474.63 km
Semi-major axis
6,853.614 km
Eccentricity
0.00012
Inclination
53.1611°
RAAN
63.4317°
Arg. of periapsis
78.6041°
True anomaly
281.49591°
Mean anomaly
281.5098°
Eccentric anomaly
281.50285°
Mean motion
3.82528 °/min
Orbital period
94.11 mins
BSTAR
0.000040959
Loading maneuver chart data...
Computing Atmospheric mass density...
Loading historical data...
Loading historical data...
Loading historical data...
Loading historical data...
Loading historical data...
Loading historical data...
Loading historical data...

Documentation

Showing up to 5 results
|